Abilene, TX

6:06 PM CST on February 27, 2017 (GMT -0600)
Abilene Regional

Weather History for KABI - May, 2012

Change the Weather History Date:

Friday, May 4, 2012

  Actual Average Record
Temperature  
Mean Temperature 85 °F 70 °F  
Max Temperature 99 °F 82 °F 101 °F (1947)
Min Temperature 71 °F 58 °F 33 °F (1907)
Degree Days  
Heating Degree Days 0 1  
Month to date heating degree days 0 4  
Since 1 July heating degree days 2084 2546  
Cooling Degree Days 20 6  
Month to date cooling degree days 66 23  
Year to date cooling degree days 361 156  
Growing Degree Days 36 (Base 50)    
Moisture  
Dew Point 62 °F    
Average Humidity 55    
Maximum Humidity 84    
Minimum Humidity 26    
Precipitation  
Precipitation 0.02 in 0.08 in 2.36 in (1969)
Month to date precipitation 0.02 0.34  
Year to date precipitation 6.57 6.10  
Sea Level Pressure  
Sea Level Pressure 29.80 in    
Wind  
Wind Speed 14 mph (South)    
Max Wind Speed 28 mph    
Max Gust Speed 35 mph    
Visibility 10 miles    
Events Rain    
T = Trace of Precipitation, MM = Missing Value Source: NWS Daily Summary

Daily Weather History Graph

Daily Weather History Graph

Search for Another Location

Airport or City:

Trip Planner

Search our weather history database for the weather conditions in past years. The results will help you decide how hot, cold, wet, or windy it might be!

Date:

Astronomy

May. 04, 2012 Rise Set
Actual Time 6:48 AM CDT 8:22 PM CDT
Civil Twilight 6:22 AM CDT 8:48 PM CDT
Nautical Twilight 5:50 AM CDT 9:20 PM CDT
Astronomical Twilight 5:17 AM CDT 9:53 PM CDT
Moon 7:04 PM CDT (5/4) 5:26 AM CDT (5/4)
Length of Visible Light 14h 26m
Length of Day
13h 33m
Waxing Gibbous, 97% of the Moon is Illuminated
May 4
Waxing Gibbous
May 5
Full
May 12
Last Quarter
May 20
New
May 28
First Quarter

Hourly Weather History & Observations

Time (CDT) Temp. Heat Index Dew Point Humidity Pressure Visibility Wind Dir Wind Speed Gust Speed Precip Events Conditions
12:52 AM 82.0 °F 83.8 °F 64.9 °F 56% 29.83 in 10.0 mi South 11.5 mph 18.4 mph N/A   Clear
1:52 AM 80.1 °F 82.1 °F 66.0 °F 62% 29.82 in 10.0 mi Variable 3.5 mph - N/A   Clear
2:52 AM 79.0 °F - 64.9 °F 62% 29.80 in 10.0 mi SSE 6.9 mph - N/A   Clear
3:52 AM 75.9 °F - 64.9 °F 69% 29.81 in 10.0 mi SSW 3.5 mph - N/A   Clear
4:52 AM 73.9 °F - 66.0 °F 76% 29.82 in 10.0 mi SSE 9.2 mph - N/A   Clear
5:52 AM 73.0 °F - 66.9 °F 81% 29.82 in 10.0 mi South 11.5 mph - N/A   Clear
6:52 AM 72.0 °F - 66.9 °F 84% 29.84 in 10.0 mi South 10.4 mph - N/A   Clear
7:52 AM 73.9 °F - 68.0 °F 82% 29.86 in 10.0 mi South 8.1 mph - N/A   Clear
8:52 AM 77.0 °F - 66.0 °F 69% 29.86 in 10.0 mi SW 10.4 mph 16.1 mph N/A   Clear
9:06 AM 78.8 °F - 64.4 °F 61% 29.94 in 6.0 mi SW 9.2 mph - N/A   Partly Cloudy
9:52 AM 82.9 °F 83.3 °F 61.0 °F 47% 29.86 in 10.0 mi SW 15.0 mph 26.5 mph N/A   Partly Cloudy
10:52 AM 86.0 °F 85.7 °F 60.1 °F 41% 29.86 in 10.0 mi SW 13.8 mph 21.9 mph N/A   Clear
11:52 AM 90.0 °F 89.1 °F 59.0 °F 35% 29.85 in 10.0 mi SSW 19.6 mph - N/A   Clear
12:52 PM 93.0 °F 92.3 °F 59.0 °F 32% 29.83 in 10.0 mi SSW 16.1 mph 26.5 mph N/A   Clear
1:52 PM 93.9 °F 92.9 °F 57.9 °F 30% 29.82 in 10.0 mi South 13.8 mph 24.2 mph N/A   Clear
2:52 PM 97.0 °F 96.1 °F 57.9 °F 27% 29.79 in 10.0 mi South 17.3 mph 23.0 mph N/A   Clear
3:52 PM 98.1 °F 96.8 °F 57.0 °F 25% 29.75 in 10.0 mi South 13.8 mph - N/A   Clear
4:52 PM 95.0 °F 93.0 °F 55.0 °F 26% 29.70 in 10.0 mi SSW 15.0 mph 23.0 mph N/A   Partly Cloudy
4:59 PM 84.2 °F 85.0 °F 62.6 °F 48% 29.81 in 5.0 mi WSW 13.8 mph 29.9 mph 0.01 in Rain Small Hail
5:03 PM 82.4 °F 82.0 °F 57.2 °F 42% 29.81 in 5.0 mi Variable 4.6 mph 29.9 mph 0.02 in Rain Light Rain
5:27 PM 87.8 °F 88.5 °F 62.6 °F 43% 29.79 in 10.0 mi South 10.4 mph - 0.02 in   Partly Cloudy
5:52 PM 86.0 °F 84.2 °F 54.0 °F 33% 29.72 in 10.0 mi South 17.3 mph 34.5 mph 0.02 in   Clear
6:52 PM 84.0 °F 83.3 °F 57.0 °F 40% 29.72 in 10.0 mi SSE 13.8 mph - N/A   Partly Cloudy
7:52 PM 80.1 °F 81.9 °F 64.9 °F 60% 29.73 in 10.0 mi ESE 17.3 mph - N/A   Clear
8:52 PM 73.9 °F - 64.0 °F 71% 29.75 in 10.0 mi SE 13.8 mph - N/A   Clear
9:52 PM 73.0 °F - 63.0 °F 71% 29.77 in 10.0 mi SSE 19.6 mph 25.3 mph N/A   Clear
10:52 PM 73.0 °F - 62.1 °F 68% 29.78 in 10.0 mi SSE 17.3 mph 26.5 mph N/A   Clear
11:52 PM 75.9 °F - 63.0 °F 64% 29.79 in 10.0 mi South 20.7 mph 29.9 mph N/A   Clear